,,Stat6,,Stat2,,Stat8,,Stat9,,Stat10,,Wind1,,Wind1,
time,status,PA1M_AVG,status,PR1M_SUM,status,RH1M_AVG,status,SR1M_AVG,status,TA1M_AVG,status,W1dAve1m,status,W1sAve1m,
2008-05-11, 00:00:00,VALID,918.212,VALID,0,VALID,100,VALID,0.0169808,VALID,19.6826,VALID,358,VALID,0,
2008-05-11, 00:01:00,VALID,918.222,VALID,0,VALID,100,VALID,0,VALID,19.6991,VALID,358,VALID,0,
2008-05-11, 00:02:00,VALID,918.249,VALID,0,VALID,100,VALID,0,VALID,19.6888,VALID,358,VALID,0,
2008-05-11, 00:03:00,VALID,918.248,VALID,0.2,VALID,100,VALID,-0.0339617,VALID,19.6993,VALID,358,VALID,0,
2008-05-11, 00:04:00,VALID,918.25,VALID,0,VALID,100,VALID,0,VALID,19.6993,VALID,358,VALID,0,
2008-05-11, 00:05:00,VALID,918.254,VALID,0,VALID,100,VALID,0.0169808,VALID,19.6888,VALID,358,VALID,0,
2008-05-11, 00:06:00,VALID,918.255,VALID,0,VALID,100,VALID,0.0169808,VALID,19.6821,VALID,358,VALID,0,
2008-05-11, 00:07:00,VALID,918.243,VALID,0,VALID,100,VALID,0,VALID,19.6696,VALID,358,VALID,0,
2008-05-11, 00:08:00,VALID,918.262,VALID,0,VALID,99.9196,VALID,0,VALID,19.6604,VALID,358,VALID,0,
2008-05-11, 00:09:00,VALID,918.281,VALID,0,VALID,99.9084,VALID,0,VALID,19.6407,VALID,358,VALID,0,
2008-05-11, 00:10:00,VALID,918.284,VALID,0,VALID,99.8998,VALID,0,VALID,19.6404,VALID,356,VALID,0,
2008-05-11, 00:11:00,VALID,918.266,VALID,0,VALID,99.9791,VALID,-0.0339617,VALID,19.6441,VALID,330,VALID,0,
2008-05-11, 00:12:00,VALID,918.258,VALID,0,VALID,100,VALID,0,VALID,19.6798,VALID,349,VALID,0,
2008-05-11, 00:13:00,VALID,918.271,VALID,0,VALID,100,VALID,0,VALID,19.7025,VALID,358,VALID,0.334736,
2008-05-11, 00:14:00,VALID,918.252,VALID,0.2,VALID,100,VALID,-0.0339617,VALID,19.7025,VALID,25,VALID,0.898619,
2008-05-11, 00:15:00,VALID,918.259,VALID,0,VALID,100,VALID,-0.0169808,VALID,19.6993,VALID,34,VALID,0.396577,
2008-05-11, 00:16:00,VALID,918.243,VALID,0,VALID,100,VALID,-0.0339617,VALID,19.719,VALID,34,VALID,0,
2008-05-11, 00:17:00,VALID,918.231,VALID,0,VALID,100,VALID,0,VALID,19.709,VALID,34,VALID,0.00514915,
2008-05-11, 00:18:00,VALID,918.229,VALID,0,VALID,100,VALID,-0.0169808,VALID,19.6961,VALID,34,VALID,0.0328852,
2008-05-11, 00:19:00,VALID,918.216,VALID,0,VALID,100,VALID,-0.0339617,VALID,19.6728,VALID,34,VALID,0,
2008-05-11, 00:20:00,VALID,918.179,VALID,0,VALID,100,VALID,-0.0339617,VALID,19.6731,VALID,34,VALID,0,
2008-05-11, 00:21:00,VALID,918.126,VALID,0,VALID,100,VALID,0,VALID,19.6571,VALID,34,VALID,0.30599,
2008-05-11, 00:22:00,VALID,918.105,VALID,0,VALID,100,VALID,0,VALID,19.6369,VALID,27,VALID,0.773074,
2008-05-11, 00:23:00,VALID,918.103,VALID,0,VALID,100,VALID,-0.0509425,VALID,19.6312,VALID,22,VALID,0.144622,
2008-05-11, 00:24:00,VALID,918.115,VALID,0,VALID,100,VALID,-0.0169808,VALID,19.6344,VALID,22,VALID,0,
2008-05-11, 00:25:00,VALID,918.114,VALID,0,VALID,100,VALID,-0.0169808,VALID,19.6409,VALID,321,VALID,0,
2008-05-11, 00:26:00,VALID,918.106,VALID,0,VALID,100,VALID,-0.0169808,VALID,19.6179,VALID,208,VALID,0,
2008-05-11, 00:27:00,VALID,918.09,VALID,0,VALID,100,VALID,-0.0679233,VALID,19.5758,VALID,205,VALID,0,
2008-05-11, 00:28:00,VALID,918.082,VALID,0,VALID,100,VALID,-0.0169808,VALID,19.576,VALID,205,VALID,0,
2008-05-11, 00:29:00,VALID,918.049,VALID,0,VALID,100,VALID,0,VALID,19.5825,VALID,205,VALID,0,
2008-05-11, 00:30:00,VALID,918.006,VALID,0,VALID,100,VALID,0,VALID,19.5922,VALID,332,VALID,0.415968,
2008-05-11, 00:31:00,VALID,917.969,VALID,0,VALID,100,VALID,-0.0509425,VALID,19.579,VALID,29,VALID,0.779102,
2008-05-11, 00:32:00,VALID,917.973,VALID,0,VALID,100,VALID,0,VALID,19.5498,VALID,31,VALID,0.151526,
2008-05-11, 00:33:00,VALID,917.949,VALID,0,VALID,100,VALID,-0.0339617,VALID,19.5241,VALID,31,VALID,0.00104167,
2008-05-11, 00:34:00,VALID,917.918,VALID,0,VALID,100,VALID,-0.0339617,VALID,19.4884,VALID,31,VALID,0,
2008-05-11, 00:35:00,VALID,917.916,VALID,0,VALID,100,VALID,0,VALID,19.5114,VALID,31,VALID,0,
2008-05-11, 00:36:00,VALID,917.892,VALID,0,VALID,100,VALID,-0.0169808,VALID,19.5403,VALID,31,VALID,0.0964844,
2008-05-11, 00:37:00,VALID,917.863,VALID,0,VALID,100,VALID,-0.0169808,VALID,19.5206,VALID,31,VALID,0.0846657,
2008-05-11, 00:38:00,VALID,917.823,VALID,0,VALID,100,VALID,-0.0169808,VALID,19.5046,VALID,31,VALID,0,
2008-05-11, 00:39:00,VALID,917.799,VALID,0,VALID,100,VALID,0,VALID,19.5209,VALID,31,VALID,0,
2008-05-11, 00:40:01,VALID,917.779,VALID,0,VALID,100,VALID,-0.0169808,VALID,19.5044,VALID,16,VALID,0,
2008-05-11, 00:41:00,VALID,917.763,VALID,0,VALID,100,VALID,-0.0339617,VALID,19.4852,VALID,2,VALID,0.00595238,
2008-05-11, 00:42:00,VALID,917.752,VALID,0,VALID,100,VALID,-0.0169808,VALID,19.4884,VALID,8,VALID,0.547763,
2008-05-11, 00:43:00,VALID,917.752,VALID,0,VALID,100,VALID,-0.0339617,VALID,19.5174,VALID,11,VALID,0.0638021,
2008-05-11, 00:44:00,VALID,917.752,VALID,0,VALID,100,VALID,0.0169808,VALID,19.5368,VALID,6,VALID,0,
2008-05-11, 00:45:00,VALID,917.75,VALID,0.2,VALID,100,VALID,0,VALID,19.5371,VALID,4,VALID,0,
2008-05-11, 00:46:00,VALID,917.77,VALID,0,VALID,100,VALID,0.0169808,VALID,19.5261,VALID,4,VALID,0,
2008-05-11, 00:47:00,VALID,917.786,VALID,0,VALID,100,VALID,0,VALID,19.5498,VALID,4,VALID,0,
2008-05-11, 00:48:00,VALID,917.813,VALID,0,VALID,100,VALID,0,VALID,19.5501,VALID,4,VALID,0,
2008-05-11, 00:49:00,VALID,917.829,VALID,0,VALID,100,VALID,-0.0169808,VALID,19.5176,VALID,4,VALID,0,
2008-05-11, 00:50:00,VALID,917.812,VALID,0,VALID,100,VALID,-0.0679233,VALID,19.4884,VALID,4,VALID,0.115699,
2008-05-11, 00:51:00,VALID,917.784,VALID,0,VALID,100,VALID,-0.0169808,VALID,19.4657,VALID,7,VALID,0.409307,
2008-05-11, 00:52:00,VALID,917.764,VALID,0,VALID,100,VALID,-0.0509425,VALID,19.4757,VALID,22,VALID,0.901442,
2008-05-11, 00:53:00,VALID,917.727,VALID,0,VALID,100,VALID,-0.0169808,VALID,19.4587,VALID,23,VALID,0.809956,
2008-05-11, 00:54:00,VALID,917.702,VALID,0,VALID,100,VALID,-0.0339617,VALID,19.4592,VALID,15,VALID,0.967152,
2008-05-11, 00:55:01,VALID,917.674,VALID,0,VALID,100,VALID,0,VALID,19.4333,VALID,16,VALID,0.972917,
2008-05-11, 00:56:00,VALID,917.649,VALID,0,VALID,100,VALID,0,VALID,19.3966,VALID,14,VALID,0.584077,
2008-05-11, 00:57:00,VALID,917.641,VALID,0,VALID,100,VALID,0,VALID,19.4036,VALID,11,VALID,0.0730469,
2008-05-11, 00:58:01,VALID,917.632,VALID,0,VALID,100,VALID,0,VALID,19.3679,VALID,11,VALID,0,
2008-05-11, 00:59:00,VALID,917.606,VALID,0,VALID,100,VALID,0.0339617,VALID,19.335,VALID,17,VALID,0,
2008-05-11, 01:00:01,VALID,917.602,VALID,0,VALID,100,VALID,0.0169808,VALID,19.3257,VALID,13,VALID,0,
2008-05-11, 01:01:00,VALID,917.609,VALID,0,VALID,100,VALID,0,VALID,19.302,VALID,17,VALID,0,
2008-05-11, 01:02:00,VALID,917.636,VALID,0,VALID,100,VALID,-0.0169808,VALID,19.303,VALID,6,VALID,0.500908,
2008-05-11, 01:03:00,VALID,917.631,VALID,0,VALID,100,VALID,0,VALID,19.2603,VALID,5,VALID,0.238095,
2008-05-11, 01:04:00,VALID,917.62,VALID,0,VALID,100,VALID,0,VALID,19.2511,VALID,10,VALID,0,
2008-05-11, 01:05:01,VALID,917.592,VALID,0,VALID,100,VALID,0.0169808,VALID,19.2676,VALID,15,VALID,0.00133384,
2008-05-11, 01:06:00,VALID,917.562,VALID,0,VALID,100,VALID,0.0339617,VALID,19.2573,VALID,15,VALID,0,
2008-05-11, 01:07:01,VALID,917.565,VALID,0,VALID,100,VALID,0,VALID,19.2608,VALID,15,VALID,0,
2008-05-11, 01:08:00,VALID,917.544,VALID,0,VALID,100,VALID,0,VALID,19.2513,VALID,17,VALID,0.547408,
2008-05-11, 01:09:01,VALID,917.519,VALID,0,VALID,100,VALID,0,VALID,19.2643,VALID,19,VALID,1,
2008-05-11, 01:10:00,VALID,917.523,VALID,0,VALID,100,VALID,-0.0169808,VALID,19.2548,VALID,11,VALID,1.01615,
2008-05-11, 01:11:00,VALID,917.542,VALID,0,VALID,100,VALID,0,VALID,19.2548,VALID,10,VALID,0.202446,
2008-05-11, 01:12:01,VALID,917.544,VALID,0,VALID,100,VALID,-0.0509425,VALID,19.2676,VALID,10,VALID,0,
2008-05-11, 01:13:00,VALID,917.531,VALID,0,VALID,100,VALID,-0.0339617,VALID,19.2678,VALID,10,VALID,0,
2008-05-11, 01:14:01,VALID,917.532,VALID,0,VALID,100,VALID,-0.0509425,VALID,19.2775,VALID,10,VALID,0,
2008-05-11, 01:15:00,VALID,917.526,VALID,0,VALID,100,VALID,-0.0509425,VALID,19.294,VALID,13,VALID,0.0524009,
2008-05-11, 01:16:00,VALID,917.513,VALID,0,VALID,100,VALID,-0.0679233,VALID,19.3137,VALID,21,VALID,1.06194,
2008-05-11, 01:17:01,VALID,917.502,VALID,0,VALID,100,VALID,-0.0339617,VALID,19.3165,VALID,23,VALID,1.03496,
2008-05-11, 01:18:00,VALID,917.515,VALID,0,VALID,100,VALID,-0.0339617,VALID,19.3589,VALID,36,VALID,0.516768,
2008-05-11, 01:19:00,VALID,917.522,VALID,0,VALID,100,VALID,-0.135847,VALID,19.4055,VALID,34,VALID,0.163872,
2008-05-11, 01:20:00,VALID,917.524,VALID,0,VALID,100,VALID,-0.186789,VALID,19.409,VALID,32,VALID,0,
2008-05-11, 01:21:00,VALID,917.502,VALID,0,VALID,100,VALID,-0.152827,VALID,19.422,VALID,32,VALID,0,
2008-05-11, 01:22:00,VALID,917.492,VALID,0,VALID,100,VALID,-0.101885,VALID,19.4088,VALID,29,VALID,0.78267,
2008-05-11, 01:23:00,VALID,917.472,VALID,0,VALID,100,VALID,0.0339617,VALID,19.4163,VALID,9,VALID,0.135174,
2008-05-11, 01:24:00,VALID,917.445,VALID,0,VALID,100,VALID,0.0509425,VALID,19.3996,VALID,26,VALID,0.0212296,
2008-05-11, 01:25:00,VALID,917.435,VALID,0,VALID,100,VALID,0.0509425,VALID,19.4091,VALID,29,VALID,0,
2008-05-11, 01:26:01,VALID,917.431,VALID,0,VALID,100,VALID,0.0169808,VALID,19.4156,VALID,107,VALID,0,
2008-05-11, 01:27:01,VALID,917.432,VALID,0,VALID,100,VALID,0.0679233,VALID,19.4258,VALID,36,VALID,1.0427,
2008-05-11, 01:28:01,VALID,917.383,VALID,0,VALID,100,VALID,0.0509425,VALID,19.3831,VALID,13,VALID,1.92642,
2008-05-11, 01:29:01,VALID,917.378,VALID,0,VALID,100,VALID,0.0679233,VALID,19.341,VALID,7,VALID,1.4008,
2008-05-11, 01:30:00,VALID,917.379,VALID,0,VALID,100,VALID,0.0509425,VALID,19.3212,VALID,33,VALID,1.0181,
2008-05-11, 01:31:01,VALID,917.376,VALID,0,VALID,100,VALID,0.101885,VALID,19.3215,VALID,46,VALID,0.534766,
2008-05-11, 01:32:01,VALID,917.356,VALID,0,VALID,100,VALID,0.0339617,VALID,19.3744,VALID,33,VALID,0.481836,
2008-05-11, 01:33:01,VALID,917.347,VALID,0,VALID,100,VALID,0.0849042,VALID,19.3866,VALID,29,VALID,0.37064,
2008-05-11, 01:34:01,VALID,917.363,VALID,0,VALID,100,VALID,0.0509425,VALID,19.3864,VALID,33,VALID,0.942649,
2008-05-11, 01:35:01,VALID,917.357,VALID,0,VALID,100,VALID,0.0509425,VALID,19.3903,VALID,38,VALID,0.681055,
2008-05-11, 01:36:01,VALID,917.349,VALID,0,VALID,100,VALID,0.0679233,VALID,19.3831,VALID,39,VALID,0,
2008-05-11, 01:37:01,VALID,917.363,VALID,0,VALID,100,VALID,0.0509425,VALID,19.3769,VALID,33,VALID,0.439546,
2008-05-11, 01:38:01,VALID,917.342,VALID,0,VALID,100,VALID,-0.0679233,VALID,19.3492,VALID,16,VALID,1.07955,
2008-05-11, 01:39:01,VALID,917.324,VALID,0,VALID,100,VALID,-0.0339617,VALID,19.3489,VALID,20,VALID,1.31473,
2008-05-11, 01:40:01,VALID,917.316,VALID,0,VALID,100,VALID,-0.0679233,VALID,19.3167,VALID,16,VALID,2.22917,
2008-05-11, 01:41:00,VALID,917.313,VALID,0,VALID,100,VALID,-0.0509425,VALID,19.2613,VALID,29,VALID,1.75618,
2008-05-11, 01:42:00,VALID,917.283,VALID,0,VALID,100,VALID,-0.101885,VALID,19.275,VALID,7,VALID,1.43787,
2008-05-11, 01:43:00,VALID,917.269,VALID,0,VALID,100,VALID,-0.0849042,VALID,19.2456,VALID,23,VALID,1.9319,
2008-05-11, 01:44:00,VALID,917.268,VALID,0,VALID,100,VALID,-0.0679233,VALID,19.2388,VALID,32,VALID,0.984738,
2008-05-11, 01:45:00,VALID,917.244,VALID,0,VALID,100,VALID,-0.0849042,VALID,19.2164,VALID,29,VALID,1.77486,
2008-05-11, 01:46:00,VALID,917.234,VALID,0,VALID,100,VALID,-0.0849042,VALID,19.1969,VALID,29,VALID,1.43173,
2008-05-11, 01:47:00,VALID,917.217,VALID,0,VALID,100,VALID,-0.0509425,VALID,19.2124,VALID,61,VALID,1.25906,
2008-05-11, 01:48:00,VALID,917.181,VALID,0,VALID,100,VALID,-0.0169808,VALID,19.2164,VALID,25,VALID,1.95458,
2008-05-11, 01:49:00,VALID,917.18,VALID,0,VALID,100,VALID,-0.0849042,VALID,19.2099,VALID,28,VALID,1.51705,
2008-05-11, 01:50:00,VALID,917.158,VALID,0,VALID,100,VALID,-0.0849042,VALID,19.1612,VALID,34,VALID,1.79554,
2008-05-11, 01:51:00,VALID,917.155,VALID,0,VALID,100,VALID,-0.0509425,VALID,19.164,VALID,25,VALID,1.31432,
2008-05-11, 01:52:00,VALID,917.168,VALID,0,VALID,100,VALID,-0.0679233,VALID,19.1745,VALID,4,VALID,1.67987,
2008-05-11, 01:53:00,VALID,917.135,VALID,0,VALID,100,VALID,-0.0339617,VALID,19.1288,VALID,29,VALID,1.00967,
2008-05-11, 01:54:00,VALID,917.128,VALID,0,VALID,100,VALID,-0.0339617,VALID,19.1316,VALID,355,VALID,0.442769,
2008-05-11, 01:55:00,VALID,917.138,VALID,0,VALID,100,VALID,-0.0339617,VALID,19.1413,VALID,20,VALID,0.0154514,
2008-05-11, 01:56:00,VALID,917.132,VALID,0,VALID,100,VALID,-0.0509425,VALID,19.1084,VALID,38,VALID,1.3447,
2008-05-11, 01:57:00,VALID,917.132,VALID,0,VALID,100,VALID,-0.0679233,VALID,19.1251,VALID,30,VALID,1.66087,
2008-05-11, 01:58:00,VALID,917.128,VALID,0,VALID,100,VALID,-0.0679233,VALID,19.1218,VALID,33,VALID,1.51791,
2008-05-11, 01:59:00,VALID,917.132,VALID,0,VALID,100,VALID,-0.0509425,VALID,19.1188,VALID,24,VALID,1.55687,
2008-05-11, 02:00:00,VALID,917.122,VALID,0,VALID,100,VALID,-0.0849042,VALID,19.0762,VALID,28,VALID,1.53888,
2008-05-11, 02:01:00,VALID,917.109,VALID,0,VALID,100,VALID,-0.0849042,VALID,19.0926,VALID,32,VALID,1.78963,
2008-05-11, 02:02:00,VALID,917.122,VALID,0,VALID,100,VALID,-0.0849042,VALID,19.0766,VALID,360,VALID,1.46039,
2008-05-11, 02:03:00,VALID,917.131,VALID,0,VALID,100,VALID,-0.0509425,VALID,19.0602,VALID,37,VALID,0.337054,
2008-05-11, 02:04:00,VALID,917.105,VALID,0,VALID,100,VALID,-0.0509425,VALID,19.0732,VALID,37,VALID,0.853379,
2008-05-11, 02:05:00,VALID,917.083,VALID,0,VALID,100,VALID,-0.0509425,VALID,19.0604,VALID,22,VALID,1.95827,
2008-05-11, 02:06:00,VALID,917.061,VALID,0,VALID,100,VALID,-0.0509425,VALID,19.0474,VALID,41,VALID,1.25672,
2008-05-11, 02:07:00,VALID,917.033,VALID,0,VALID,100,VALID,-0.0509425,VALID,19.0213,VALID,31,VALID,1.43121,
2008-05-11, 02:08:00,VALID,916.977,VALID,0,VALID,100,VALID,-0.0679233,VALID,19.0153,VALID,32,VALID,1.29581,
2008-05-11, 02:09:00,VALID,916.987,VALID,0,VALID,100,VALID,-0.0849042,VALID,19.015,VALID,16,VALID,0.924306,
2008-05-11, 02:10:00,VALID,916.974,VALID,0,VALID,100,VALID,-0.0339617,VALID,19.0372,VALID,11,VALID,0.247692,
2008-05-11, 02:11:00,VALID,916.942,VALID,0,VALID,100,VALID,-0.101885,VALID,19.0312,VALID,17,VALID,0.785251,
2008-05-11, 02:12:00,VALID,916.926,VALID,0,VALID,100,VALID,-0.0849042,VALID,19.0342,VALID,26,VALID,0.119978,
2008-05-11, 02:13:00,VALID,916.894,VALID,0,VALID,100,VALID,-0.0169808,VALID,19.0537,VALID,48,VALID,0,
2008-05-11, 02:14:00,VALID,916.847,VALID,0,VALID,100,VALID,-0.0679233,VALID,19.0472,VALID,43,VALID,0.765244,
2008-05-11, 02:15:00,VALID,916.799,VALID,0,VALID,100,VALID,-0.0849042,VALID,19.0013,VALID,15,VALID,1.40253,
2008-05-11, 02:16:00,VALID,916.744,VALID,0,VALID,100,VALID,-0.0679233,VALID,18.9631,VALID,27,VALID,0.485224,
2008-05-11, 02:17:00,VALID,916.653,VALID,0,VALID,100,VALID,-0.101885,VALID,18.8982,VALID,19,VALID,1.39806,
2008-05-11, 02:18:00,VALID,916.585,VALID,0,VALID,100,VALID,-0.0849042,VALID,18.888,VALID,36,VALID,0.606831,
2008-05-11, 02:19:00,VALID,916.521,VALID,0,VALID,100,VALID,-0.0849042,VALID,18.9175,VALID,41,VALID,0,
2008-05-11, 02:20:00,VALID,916.455,VALID,0,VALID,100,VALID,-0.0849042,VALID,18.9404,VALID,41,VALID,0.229492,
2008-05-11, 02:21:00,VALID,916.416,VALID,0,VALID,100,VALID,-0.0509425,VALID,18.901,VALID,51,VALID,1.02827,
2008-05-11, 02:22:00,VALID,916.401,VALID,0,VALID,100,VALID,-0.0849042,VALID,18.8658,VALID,58,VALID,0.69549,
2008-05-11, 02:23:00,VALID,916.384,VALID,0,VALID,100,VALID,-0.0509425,VALID,18.8394,VALID,74,VALID,0.980646,
2008-05-11, 02:24:00,VALID,916.352,VALID,0,VALID,100,VALID,-0.0509425,VALID,18.8167,VALID,88,VALID,1.05569,
2008-05-11, 02:25:00,VALID,916.363,VALID,0,VALID,100,VALID,-0.0169808,VALID,18.8007,VALID,102,VALID,0.655705,
2008-05-11, 02:26:00,VALID,916.395,VALID,0,VALID,100,VALID,-0.0509425,VALID,18.794,VALID,111,VALID,0.00497159,
2008-05-11, 02:27:00,VALID,916.411,VALID,0,VALID,100,VALID,-0.0849042,VALID,18.8007,VALID,111,VALID,0,
2008-05-11, 02:28:00,VALID,916.382,VALID,0,VALID,100,VALID,-0.0849042,VALID,18.8004,VALID,110,VALID,0,
2008-05-11, 02:29:00,VALID,916.378,VALID,0,VALID,100,VALID,-0.0509425,VALID,18.7972,VALID,82,VALID,0,
2008-05-11, 02:30:00,VALID,916.417,VALID,0,VALID,100,VALID,-0.0169808,VALID,18.8231,VALID,71,VALID,0,
2008-05-11, 02:31:00,VALID,916.466,VALID,0,VALID,100,VALID,-0.0339617,VALID,18.8292,VALID,59,VALID,0,
2008-05-11, 02:32:00,VALID,916.488,VALID,0,VALID,100,VALID,-0.0509425,VALID,18.8493,VALID,52,VALID,0.258832,
2008-05-11, 02:33:00,VALID,916.485,VALID,0,VALID,100,VALID,-0.0509425,VALID,18.8201,VALID,68,VALID,0.218378,
2008-05-11, 02:34:00,VALID,916.478,VALID,0,VALID,100,VALID,-0.0339617,VALID,18.8262,VALID,79,VALID,0,
2008-05-11, 02:35:00,VALID,916.466,VALID,0,VALID,100,VALID,-0.0509425,VALID,18.8262,VALID,95,VALID,0,
2008-05-11, 02:36:00,VALID,916.434,VALID,0,VALID,100,VALID,-0.0169808,VALID,18.8331,VALID,103,VALID,0,
2008-05-11, 02:37:00,VALID,916.405,VALID,0,VALID,100,VALID,-0.0679233,VALID,18.8199,VALID,103,VALID,0,
2008-05-11, 02:38:00,VALID,916.379,VALID,0,VALID,100,VALID,-0.0339617,VALID,18.8428,VALID,86,VALID,0.25343,
2008-05-11, 02:39:00,VALID,916.375,VALID,0,VALID,100,VALID,-0.0339617,VALID,18.8526,VALID,90,VALID,0.380022,
2008-05-11, 02:40:00,VALID,916.33,VALID,0,VALID,100,VALID,-0.0339617,VALID,18.8558,VALID,81,VALID,1.09286,
2008-05-11, 02:41:00,VALID,916.291,VALID,0,VALID,100,VALID,-0.0169808,VALID,18.8556,VALID,63,VALID,1.10645,
2008-05-11, 02:42:00,VALID,916.288,VALID,0,VALID,100,VALID,-0.0509425,VALID,18.8581,VALID,53,VALID,1.10339,
2008-05-11, 02:43:00,VALID,916.308,VALID,0,VALID,100,VALID,-0.0169808,VALID,18.8579,VALID,47,VALID,0.747514,
2008-05-11, 02:44:00,VALID,916.267,VALID,0,VALID,100,VALID,-0.0339617,VALID,18.8753,VALID,33,VALID,0.944741,
2008-05-11, 02:45:00,VALID,916.253,VALID,0,VALID,100,VALID,-0.0169808,VALID,18.8975,VALID,28,VALID,1.18902,
2008-05-11, 02:46:00,VALID,916.239,VALID,0,VALID,100,VALID,-0.0339617,VALID,18.8913,VALID,25,VALID,0.307639,
2008-05-11, 02:47:00,VALID,916.231,VALID,0,VALID,100,VALID,-0.0509425,VALID,18.898,VALID,1,VALID,0,
2008-05-11, 02:48:00,VALID,916.23,VALID,0,VALID,100,VALID,-0.0339617,VALID,18.8785,VALID,354,VALID,0,
2008-05-11, 02:49:00,VALID,916.24,VALID,0,VALID,100,VALID,-0.0679233,VALID,18.8588,VALID,346,VALID,0,
2008-05-11, 02:50:00,VALID,916.224,VALID,0,VALID,100,VALID,-0.0509425,VALID,18.8688,VALID,346,VALID,0,
2008-05-11, 02:51:00,VALID,916.178,VALID,0,VALID,100,VALID,-0.0509425,VALID,18.9042,VALID,21,VALID,0.824574,
2008-05-11, 02:52:00,VALID,916.14,VALID,0,VALID,100,VALID,-0.0509425,VALID,18.9302,VALID,23,VALID,1.55373,
2008-05-11, 02:53:00,VALID,916.149,VALID,0,VALID,100,VALID,0.0339617,VALID,18.9288,VALID,28,VALID,1.44496,
2008-05-11, 02:54:00,VALID,916.154,VALID,0,VALID,100,VALID,0.0339617,VALID,18.9063,VALID,15,VALID,1.27101,
2008-05-11, 02:55:00,VALID,916.181,VALID,0,VALID,100,VALID,0.0509425,VALID,18.9288,VALID,20,VALID,0.985119,
2008-05-11, 02:56:00,VALID,916.194,VALID,0,VALID,100,VALID,0.0849042,VALID,18.929,VALID,29,VALID,0.461483,
2008-05-11, 02:57:00,VALID,916.204,VALID,0,VALID,100,VALID,0.0679233,VALID,18.9257,VALID,150,VALID,0.28343,
2008-05-11, 02:58:00,VALID,916.216,VALID,0,VALID,100,VALID,0.0339617,VALID,18.9193,VALID,227,VALID,0.427951,
2008-05-11, 02:59:00,VALID,916.216,VALID,0,VALID,100,VALID,0.0339617,VALID,18.916,VALID,271,VALID,0,
2008-05-11, 03:00:00,VALID,916.192,VALID,0,VALID,100,VALID,0.0509425,VALID,18.8901,VALID,31,VALID,0.307692,
2008-05-11, 03:01:00,VALID,916.178,VALID,0,VALID,100,VALID,0.0509425,VALID,18.8963,VALID,23,VALID,0.078311,
2008-05-11, 03:02:00,VALID,916.166,VALID,0,VALID,100,VALID,0.0509425,VALID,18.9225,VALID,24,VALID,0.369792,
2008-05-11, 03:03:00,VALID,916.185,VALID,0,VALID,100,VALID,0.0339617,VALID,18.916,VALID,25,VALID,0.0344122,
2008-05-11, 03:04:00,VALID,916.189,VALID,0,VALID,100,VALID,0.0509425,VALID,18.9288,VALID,17,VALID,0,
2008-05-11, 03:05:00,VALID,916.171,VALID,0,VALID,100,VALID,0.101885,VALID,18.9549,VALID,25,VALID,0.257626,
2008-05-11, 03:06:00,VALID,916.146,VALID,0,VALID,100,VALID,0.0679233,VALID,18.9412,VALID,35,VALID,1.33426,
2008-05-11, 03:07:00,VALID,916.162,VALID,0,VALID,100,VALID,0.101885,VALID,18.9517,VALID,24,VALID,1.0834,
2008-05-11, 03:08:00,VALID,916.186,VALID,0,VALID,100,VALID,-0.0849042,VALID,18.9561,VALID,18,VALID,1.08903,
2008-05-11, 03:09:00,VALID,916.217,VALID,0,VALID,100,VALID,-0.0849042,VALID,18.9367,VALID,14,VALID,1.24707,
2008-05-11, 03:10:00,VALID,916.203,VALID,0,VALID,100,VALID,-0.0679233,VALID,18.917,VALID,9,VALID,1.11623,
2008-05-11, 03:11:00,VALID,916.209,VALID,0,VALID,100,VALID,-0.0849042,VALID,18.898,VALID,12,VALID,1.39577,
2008-05-11, 03:12:00,VALID,916.213,VALID,0,VALID,100,VALID,-0.0679233,VALID,18.9077,VALID,13,VALID,0.83559,
2008-05-11, 03:13:00,VALID,916.198,VALID,0,VALID,100,VALID,-0.0849042,VALID,18.9269,VALID,13,VALID,0,
2008-05-11, 03:14:00,VALID,916.177,VALID,0,VALID,100,VALID,-0.0509425,VALID,18.9075,VALID,275,VALID,0.288086,
2008-05-11, 03:15:00,VALID,916.171,VALID,0,VALID,100,VALID,-0.0849042,VALID,18.9045,VALID,315,VALID,0.167039,
2008-05-11, 03:16:00,VALID,916.169,VALID,0,VALID,100,VALID,-0.0339617,VALID,18.8783,VALID,26,VALID,0.103693,
2008-05-11, 03:17:00,VALID,916.142,VALID,0,VALID,100,VALID,-0.0679233,VALID,18.9107,VALID,22,VALID,1.35995,
2008-05-11, 03:18:00,VALID,916.108,VALID,0,VALID,100,VALID,-0.0849042,VALID,18.9274,VALID,20,VALID,1.4375,
2008-05-11, 03:19:00,VALID,916.091,VALID,0,VALID,100,VALID,-0.0679233,VALID,18.872,VALID,23,VALID,1.97046,
2008-05-11, 03:20:00,VALID,916.115,VALID,0,VALID,100,VALID,-0.0679233,VALID,18.8134,VALID,356,VALID,1.53609,
2008-05-11, 03:21:00,VALID,916.156,VALID,0,VALID,100,VALID,-0.0679233,VALID,18.781,VALID,296,VALID,0.622692,
2008-05-11, 03:22:00,VALID,916.154,VALID,0,VALID,100,VALID,-0.101885,VALID,18.7909,VALID,264,VALID,0,
2008-05-11, 03:23:00,VALID,916.146,VALID,0,VALID,100,VALID,-0.0849042,VALID,18.7845,VALID,286,VALID,0.259993,
2008-05-11, 03:24:00,VALID,916.114,VALID,0,VALID,100,VALID,-0.0849042,VALID,18.7585,VALID,324,VALID,0.638477,
2008-05-11, 03:25:00,VALID,916.112,VALID,0,VALID,100,VALID,-0.0849042,VALID,18.7553,VALID,2,VALID,0.565952,
2008-05-11, 03:26:00,VALID,916.109,VALID,0,VALID,100,VALID,-0.0679233,VALID,18.7812,VALID,17,VALID,0.993712,
2008-05-11, 03:27:00,VALID,916.101,VALID,0,VALID,100,VALID,-0.0849042,VALID,18.7974,VALID,11,VALID,0.999092,
2008-05-11, 03:28:00,VALID,916.108,VALID,0,VALID,100,VALID,-0.101885,VALID,18.8106,VALID,354,VALID,0.0654762,
2008-05-11, 03:29:00,VALID,916.114,VALID,0,VALID,100,VALID,-0.0849042,VALID,18.7907,VALID,3,VALID,0,
2008-05-11, 03:30:00,VALID,916.062,VALID,0,VALID,100,VALID,-0.0339617,VALID,18.8266,VALID,21,VALID,0,
2008-05-11, 03:31:00,VALID,916.028,VALID,0,VALID,100,VALID,-0.0509425,VALID,18.8396,VALID,35,VALID,0.925509,
2008-05-11, 03:32:00,VALID,915.997,VALID,0,VALID,100,VALID,-0.0339617,VALID,18.8428,VALID,24,VALID,1.47584,
2008-05-11, 03:33:00,VALID,916.006,VALID,0,VALID,100,VALID,-0.0509425,VALID,18.8489,VALID,37,VALID,1.06818,
2008-05-11, 03:34:00,VALID,916.052,VALID,0,VALID,100,VALID,-0.0679233,VALID,18.8651,VALID,35,VALID,0.237165,
2008-05-11, 03:35:00,VALID,916.049,VALID,0,VALID,100,VALID,-0.0509425,VALID,18.8491,VALID,21,VALID,0,
2008-05-11, 03:36:00,VALID,916.022,VALID,0,VALID,100,VALID,-0.0339617,VALID,18.8164,VALID,21,VALID,0,
2008-05-11, 03:37:00,VALID,916.025,VALID,0,VALID,100,VALID,-0.0679233,VALID,18.8364,VALID,21,VALID,0,
2008-05-11, 03:38:00,VALID,916.03,VALID,0,VALID,100,VALID,-0.0679233,VALID,18.8102,VALID,29,VALID,0.585417,
2008-05-11, 03:39:00,VALID,916.006,VALID,0,VALID,100,VALID,-0.0339617,VALID,18.8002,VALID,30,VALID,1.08539,
2008-05-11, 03:40:00,VALID,915.975,VALID,0,VALID,100,VALID,-0.0509425,VALID,18.8129,VALID,24,VALID,1.95058,
2008-05-11, 03:41:00,VALID,916.001,VALID,0,VALID,100,VALID,0,VALID,18.7997,VALID,12,VALID,1.53963,
2008-05-11, 03:42:00,VALID,916.035,VALID,0,VALID,100,VALID,-0.0169808,VALID,18.7935,VALID,347,VALID,0.541349,
2008-05-11, 03:43:00,VALID,916.06,VALID,0,VALID,100,VALID,-0.0169808,VALID,18.8004,VALID,239,VALID,0,